Location: Bailen
(14.1842°N, 120.7958°E)
Time: 17:34:50
(UTC+00:00)

ASC 2 Rocket - Pass Details

Date: 12 January 2026
Orbit: 555 x 2328 km, 24.0° (Epoch: 17 February)

Event Time Altitude Azimuth Distance (km) Brightness Sun altitude
Exits shadow 21:40:32 14° 295° (WNW) 1,769 4.7 -10.8°
Maximum altitude 21:43:36 28° 348° (NNW) 1,115 4.1 -10.1°
Drops below altitude 10° 21:47:07 10° 48° (NE) 1,824 5.9 -9.3°
Sets 21:49:32 0° 61° (ENE) 2,718 7.0 -8.7°
